Location: Hackbridge
(51.3833°N, 0.1500°W)
Time: 18:14:53
(UTC+00:00)

ASTEX 1 - Pass Details

Date: 13 October 2019
Orbit: 722 x 742 km, 92.7° (Epoch: 22 November)

Event Time Altitude Azimuth Distance (km) Brightness Sun altitude
Rises 17:38:53 0° 11° (NNE) 3,162 6.5 -4.9°
Reaches altitude 10° 17:41:22 10° 21° (NNE) 2,239 5.7 -5.3°
Maximum altitude 17:45:54 36° 87° (E) 1,163 4.0 -6.0°
Drops below altitude 10° 17:50:27 10° 154° (SSE) 2,235 5.7 -6.7°
Sets 17:52:54 0° 163° (SSE) 3,155 6.5 -7.1°
